******** Week 664 almanac for PRN-01 ******** ID: 01 Health: 000 Eccentricity: 0.6928443909E-003 Time of Applicability(s): 503808.0000 Orbital Inclination(rad): 0.9598429380 Rate of Right Ascen(r/s): -0.7840326581E-008 SQRT(A) (m 1/2): 5153.597168 Right Ascen at Week(rad): -0.9854774197E+000 Argument of Perigee(rad): 0.302514419 Mean Anom(rad): -0.2298922628E+001 Af0(s): 0.2574920654E-003 Af1(s/s): 0.3637978807E-011 week: 664 ******** Week 664 almanac for PRN-02 ******** ID: 02 Health: 000 Eccentricity: 0.1123094559E-001 Time of Applicability(s): 503808.0000 Orbital Inclination(rad): 0.9383851833 Rate of Right Ascen(r/s): -0.8011762293E-008 SQRT(A) (m 1/2): 5153.635254 Right Ascen at Week(rad): -0.9990124783E+000 Argument of Perigee(rad): -2.787513486 Mean Anom(rad): -0.1333701170E+001 Af0(s): 0.3910064697E-003 Af1(s/s): 0.0000000000E+000 week: 664 ******** Week 664 almanac for PRN-03 ******** ID: 03 Health: 000 Eccentricity: 0.1526117325E-001 Time of Applicability(s): 503808.0000 Orbital Inclination(rad): 0.9310029007 Rate of Right Ascen(r/s): -0.8263201338E-008 SQRT(A) (m 1/2): 5153.648438 Right Ascen at Week(rad): -0.2163244724E+001 Argument of Perigee(rad): 1.187289895 Mean Anom(rad): -0.1161208851E+001 Af0(s): 0.5054473877E-004 Af1(s/s): 0.3637978807E-011 week: 664 ******** Week 664 almanac for PRN-04 ******** ID: 04 Health: 000 Eccentricity: 0.9984970093E-002 Time of Applicability(s): 503808.0000 Orbital Inclination(rad): 0.9374564058 Rate of Right Ascen(r/s): -0.8034620388E-008 SQRT(A) (m 1/2): 5153.541016 Right Ascen at Week(rad): -0.9820956213E+000 Argument of Perigee(rad): 0.853022897 Mean Anom(rad): 0.1840415921E+001 Af0(s): 0.1878738403E-003 Af1(s/s): 0.1091393642E-010 week: 664 ******** Week 664 almanac for PRN-05 ******** ID: 05 Health: 000 Eccentricity: 0.2659797668E-002 Time of Applicability(s): 503808.0000 Orbital Inclination(rad): 0.9515318780 Rate of Right Ascen(r/s): -0.7794610391E-008 SQRT(A) (m 1/2): 5153.617676 Right Ascen at Week(rad): 0.6404744296E-001 Argument of Perigee(rad): 0.245128332 Mean Anom(rad): 0.7232097733E+000 Af0(s): -0.3166198730E-003 Af1(s/s): -0.3637978807E-011 week: 664 ******** Week 664 almanac for PRN-06 ******** ID: 06 Health: 000 Eccentricity: 0.7344245911E-002 Time of Applicability(s): 503808.0000 Orbital Inclination(rad): 0.9378279168 Rate of Right Ascen(r/s): -0.8206056101E-008 SQRT(A) (m 1/2): 5153.623047 Right Ascen at Week(rad): -0.2086680133E+001 Argument of Perigee(rad): -0.546400137 Mean Anom(rad): 0.7331607996E+000 Af0(s): 0.2479553223E-004 Af1(s/s): -0.3637978807E-011 week: 664 ******** Week 664 almanac for PRN-07 ******** ID: 07 Health: 000 Eccentricity: 0.5357742310E-002 Time of Applicability(s): 503808.0000 Orbital Inclination(rad): 0.9756920754 Rate of Right Ascen(r/s): -0.7840326581E-008 SQRT(A) (m 1/2): 5153.563965 Right Ascen at Week(rad): 0.2175420697E+001 Argument of Perigee(rad): -3.028793758 Mean Anom(rad): -0.2720801051E+001 Af0(s): 0.8201599121E-004 Af1(s/s): 0.3637978807E-011 week: 664 ******** Week 664 almanac for PRN-08 ******** ID: 08 Health: 000 Eccentricity: 0.1223945618E-001 Time of Applicability(s): 503808.0000 Orbital Inclination(rad): 0.9979108284 Rate of Right Ascen(r/s): -0.7554600394E-008 SQRT(A) (m 1/2): 5153.642578 Right Ascen at Week(rad): 0.2258577361E+001 Argument of Perigee(rad): -2.969789052 Mean Anom(rad): 0.2880159034E+001 Af0(s): 0.9536743164E-006 Af1(s/s): 0.0000000000E+000 week: 664 ******** Week 664 almanac for PRN-09 ******** ID: 09 Health: 000 Eccentricity: 0.1749801636E-001 Time of Applicability(s): 503808.0000 Orbital Inclination(rad): 0.9844165911 Rate of Right Ascen(r/s): -0.7783181344E-008 SQRT(A) (m 1/2): 5153.579102 Right Ascen at Week(rad): 0.2149611170E+001 Argument of Perigee(rad): 1.615328583 Mean Anom(rad): 0.2861971475E+001 Af0(s): 0.1592636108E-003 Af1(s/s): 0.3637978807E-011 week: 664 ******** Week 664 almanac for PRN-10 ******** ID: 10 Health: 000 Eccentricity: 0.1126813889E-001 Time of Applicability(s): 503808.0000 Orbital Inclination(rad): 0.9464206061 Rate of Right Ascen(r/s): -0.7874613724E-008 SQRT(A) (m 1/2): 5153.653320 Right Ascen at Week(rad): 0.8565350244E-001 Argument of Perigee(rad): 0.751334877 Mean Anom(rad): 0.1015692272E+001 Af0(s): -0.3814697266E-004 Af1(s/s): 0.0000000000E+000 week: 664 ******** Week 664 almanac for PRN-11 ******** ID: 11 Health: 000 Eccentricity: 0.1289224625E-001 Time of Applicability(s): 503808.0000 Orbital Inclination(rad): 0.8876979040 Rate of Right Ascen(r/s): -0.8697505143E-008 SQRT(A) (m 1/2): 5153.599121 Right Ascen at Week(rad): -0.1254861449E+001 Argument of Perigee(rad): 1.045650962 Mean Anom(rad): -0.2615324517E+001 Af0(s): -0.2622604370E-003 Af1(s/s): -0.3637978807E-011 week: 664 ******** Week 664 almanac for PRN-12 ******** ID: 12 Health: 000 Eccentricity: 0.4127502441E-002 Time of Applicability(s): 503808.0000 Orbital Inclination(rad): 0.9800663175 Rate of Right Ascen(r/s): -0.7463168014E-008 SQRT(A) (m 1/2): 5153.756836 Right Ascen at Week(rad): -0.3051726696E+001 Argument of Perigee(rad): 0.042536883 Mean Anom(rad): -0.2963923898E+001 Af0(s): 0.6961822510E-004 Af1(s/s): 0.3637978807E-011 week: 664 ******** Week 664 almanac for PRN-13 ******** ID: 13 Health: 000 Eccentricity: 0.4996299744E-002 Time of Applicability(s): 503808.0000 Orbital Inclination(rad): 0.9857168795 Rate of Right Ascen(r/s): -0.7988904198E-008 SQRT(A) (m 1/2): 5153.622559 Right Ascen at Week(rad): 0.1204446062E+001 Argument of Perigee(rad): 1.993133520 Mean Anom(rad): -0.4489275669E+000 Af0(s): 0.2069473267E-003 Af1(s/s): -0.3637978807E-011 week: 664 ******** Week 664 almanac for PRN-14 ******** ID: 14 Health: 000 Eccentricity: 0.6300926208E-002 Time of Applicability(s): 503808.0000 Orbital Inclination(rad): 0.9785802736 Rate of Right Ascen(r/s): -0.8057478483E-008 SQRT(A) (m 1/2): 5153.540039 Right Ascen at Week(rad): 0.1177794269E+001 Argument of Perigee(rad): -2.068769709 Mean Anom(rad): -0.2849953544E+000 Af0(s): 0.2031326294E-003 Af1(s/s): 0.0000000000E+000 week: 664 ******** Week 664 almanac for PRN-15 ******** ID: 15 Health: 000 Eccentricity: 0.4374980927E-002 Time of Applicability(s): 503808.0000 Orbital Inclination(rad): 0.9454858365 Rate of Right Ascen(r/s): -0.8388920861E-008 SQRT(A) (m 1/2): 5153.502441 Right Ascen at Week(rad): 0.1090231155E+001 Argument of Perigee(rad): 0.054856666 Mean Anom(rad): -0.7721915476E+000 Af0(s): -0.9155273438E-004 Af1(s/s): 0.0000000000E+000 week: 664 ******** Week 664 almanac for PRN-16 ******** ID: 16 Health: 000 Eccentricity: 0.6654262543E-002 Time of Applicability(s): 503808.0000 Orbital Inclination(rad): 0.9808992211 Rate of Right Ascen(r/s): -0.7440309919E-008 SQRT(A) (m 1/2): 5153.631348 Right Ascen at Week(rad): -0.3033590070E+001 Argument of Perigee(rad): -0.020790009 Mean Anom(rad): 0.1002129126E+001 Af0(s): -0.2355575562E-003 Af1(s/s): 0.0000000000E+000 week: 664 ******** Week 664 almanac for PRN-17 ******** ID: 17 Health: 000 Eccentricity: 0.7358551025E-002 Time of Applicability(s): 503808.0000 Orbital Inclination(rad): 0.9625993097 Rate of Right Ascen(r/s): -0.7943188009E-008 SQRT(A) (m 1/2): 5153.620605 Right Ascen at Week(rad): -0.1993452226E+001 Argument of Perigee(rad): -2.296139667 Mean Anom(rad): 0.3534747136E-001 Af0(s): 0.1277923584E-003 Af1(s/s): -0.3637978807E-011 week: 664 ******** Week 664 almanac for PRN-18 ******** ID: 18 Health: 000 Eccentricity: 0.1328611374E-001 Time of Applicability(s): 503808.0000 Orbital Inclination(rad): 0.9302359103 Rate of Right Ascen(r/s): -0.8011762293E-008 SQRT(A) (m 1/2): 5153.644531 Right Ascen at Week(rad): 0.7460329806E-001 Argument of Perigee(rad): -2.179718165 Mean Anom(rad): 0.1517909942E+001 Af0(s): 0.1964569092E-003 Af1(s/s): 0.0000000000E+000 week: 664 ******** Week 664 almanac for PRN-19 ******** ID: 19 Health: 000 Eccentricity: 0.8328914642E-002 Time of Applicability(s): 503808.0000 Orbital Inclination(rad): 0.9599388118 Rate of Right Ascen(r/s): -0.8011762293E-008 SQRT(A) (m 1/2): 5153.511230 Right Ascen at Week(rad): -0.1940380086E+001 Argument of Perigee(rad): 0.161562707 Mean Anom(rad): -0.8008525704E+000 Af0(s): -0.2670288086E-003 Af1(s/s): -0.3637978807E-011 week: 664 ******** Week 664 almanac for PRN-20 ******** ID: 20 Health: 000 Eccentricity: 0.4985332489E-002 Time of Applicability(s): 503808.0000 Orbital Inclination(rad): 0.9306853188 Rate of Right Ascen(r/s): -0.7977475151E-008 SQRT(A) (m 1/2): 5153.652832 Right Ascen at Week(rad): 0.2090198626E-001 Argument of Perigee(rad): 1.295114588 Mean Anom(rad): 0.1873239589E+001 Af0(s): 0.6389617920E-004 Af1(s/s): 0.0000000000E+000 week: 664 ******** Week 664 almanac for PRN-21 ******** ID: 21 Health: 000 Eccentricity: 0.1914978027E-001 Time of Applicability(s): 503808.0000 Orbital Inclination(rad): 0.9311586957 Rate of Right Ascen(r/s): -0.8057478483E-008 SQRT(A) (m 1/2): 5153.552734 Right Ascen at Week(rad): -0.9760462092E+000 Argument of Perigee(rad): -2.252604348 Mean Anom(rad): 0.2585744454E+001 Af0(s): -0.2241134644E-003 Af1(s/s): -0.3637978807E-011 week: 664 ******** Week 664 almanac for PRN-22 ******** ID: 22 Health: 000 Eccentricity: 0.6071567535E-002 Time of Applicability(s): 503808.0000 Orbital Inclination(rad): 0.9279529155 Rate of Right Ascen(r/s): -0.8034620388E-008 SQRT(A) (m 1/2): 5153.628906 Right Ascen at Week(rad): 0.7799782977E-001 Argument of Perigee(rad): -2.017546510 Mean Anom(rad): 0.7005644568E+000 Af0(s): 0.1440048218E-003 Af1(s/s): 0.0000000000E+000 week: 664 ******** Week 664 almanac for PRN-23 ******** ID: 23 Health: 000 Eccentricity: 0.7867813110E-002 Time of Applicability(s): 503808.0000 Orbital Inclination(rad): 0.9601964726 Rate of Right Ascen(r/s): -0.8228914196E-008 SQRT(A) (m 1/2): 5153.579102 Right Ascen at Week(rad): 0.1125833666E+001 Argument of Perigee(rad): -3.012806802 Mean Anom(rad): -0.1193752388E+001 Af0(s): 0.2040863037E-003 Af1(s/s): -0.3637978807E-011 week: 664 ******** Week 664 almanac for PRN-25 ******** ID: 25 Health: 000 Eccentricity: 0.1664638519E-002 Time of Applicability(s): 503808.0000 Orbital Inclination(rad): 0.9689090041 Rate of Right Ascen(r/s): -0.7600316584E-008 SQRT(A) (m 1/2): 5153.671387 Right Ascen at Week(rad): -0.3085678005E+001 Argument of Perigee(rad): 0.666225907 Mean Anom(rad): 0.2077450407E+001 Af0(s): 0.3433227539E-004 Af1(s/s): 0.0000000000E+000 week: 664 ******** Week 664 almanac for PRN-26 ******** ID: 26 Health: 000 Eccentricity: 0.2093410492E-001 Time of Applicability(s): 503808.0000 Orbital Inclination(rad): 0.9832601134 Rate of Right Ascen(r/s): -0.7988904198E-008 SQRT(A) (m 1/2): 5153.614746 Right Ascen at Week(rad): 0.1198417622E+001 Argument of Perigee(rad): 1.195393852 Mean Anom(rad): -0.1342220082E+001 Af0(s): -0.3976821899E-003 Af1(s/s): 0.1091393642E-010 week: 664 ******** Week 664 almanac for PRN-27 ******** ID: 27 Health: 000 Eccentricity: 0.2170658112E-001 Time of Applicability(s): 503808.0000 Orbital Inclination(rad): 0.9818639512 Rate of Right Ascen(r/s): -0.7806039439E-008 SQRT(A) (m 1/2): 5153.688477 Right Ascen at Week(rad): 0.2122758267E+001 Argument of Perigee(rad): -1.084170882 Mean Anom(rad): -0.4508828681E+000 Af0(s): 0.3890991211E-003 Af1(s/s): 0.3637978807E-011 week: 664 ******** Week 664 almanac for PRN-28 ******** ID: 28 Health: 000 Eccentricity: 0.1784276962E-001 Time of Applicability(s): 503808.0000 Orbital Inclination(rad): 0.9792573823 Rate of Right Ascen(r/s): -0.7486026109E-008 SQRT(A) (m 1/2): 5153.588867 Right Ascen at Week(rad): -0.3026847445E+001 Argument of Perigee(rad): -1.828448923 Mean Anom(rad): 0.6218704185E+000 Af0(s): 0.1459121704E-003 Af1(s/s): 0.3637978807E-011 week: 664 ******** Week 664 almanac for PRN-29 ******** ID: 29 Health: 000 Eccentricity: 0.2290725708E-002 Time of Applicability(s): 503808.0000 Orbital Inclination(rad): 0.9631266156 Rate of Right Ascen(r/s): -0.7954617056E-008 SQRT(A) (m 1/2): 5153.520020 Right Ascen at Week(rad): -0.1984883505E+001 Argument of Perigee(rad): -1.138789736 Mean Anom(rad): 0.2844146438E+001 Af0(s): 0.3147125244E-003 Af1(s/s): 0.3637978807E-011 week: 664 ******** Week 664 almanac for PRN-30 ******** ID: 30 Health: 000 Eccentricity: 0.1106405258E-001 Time of Applicability(s): 503808.0000 Orbital Inclination(rad): 0.9601425436 Rate of Right Ascen(r/s): -0.7657461821E-008 SQRT(A) (m 1/2): 5153.608887 Right Ascen at Week(rad): 0.3106745524E+001 Argument of Perigee(rad): 1.561347140 Mean Anom(rad): -0.7885882143E-001 Af0(s): -0.1869201660E-003 Af1(s/s): -0.1818989404E-010 week: 664 ******** Week 664 almanac for PRN-31 ******** ID: 31 Health: 000 Eccentricity: 0.7790088654E-002 Time of Applicability(s): 503808.0000 Orbital Inclination(rad): 0.9807614025 Rate of Right Ascen(r/s): -0.7794610391E-008 SQRT(A) (m 1/2): 5153.605957 Right Ascen at Week(rad): 0.2178295038E+001 Argument of Perigee(rad): -0.862164240 Mean Anom(rad): -0.2791809456E+001 Af0(s): 0.2431869507E-003 Af1(s/s): 0.3637978807E-011 week: 664 ******** Week 664 almanac for PRN-32 ******** ID: 32 Health: 000 Eccentricity: 0.1180315018E-001 Time of Applicability(s): 503808.0000 Orbital Inclination(rad): 0.9521850183 Rate of Right Ascen(r/s): -0.7794610391E-008 SQRT(A) (m 1/2): 5153.636230 Right Ascen at Week(rad): 0.1529760094E+000 Argument of Perigee(rad): -0.578440336 Mean Anom(rad): -0.2207635042E+001 Af0(s): -0.4453659058E-003 Af1(s/s): -0.3637978807E-011 week: 664